Location: Krasnoyarskiy Pitomnik
(51.1333°N, 71.6167°E)
Time: 11:35:00
(UTC+00:00)

Landsat 5 - Pass Details

Date: 02 June 2022
Orbit: 528 x 649 km, 98.2° (Epoch: 02 July)

Event Time Altitude Azimuth Distance (km) Brightness Sun altitude
Rises 16:07:39 0° 0° (N) 2,922 7.8 -6.2°
Reaches altitude 10° 16:10:48 10° 336° (NNW) 2,030 7.7 -6.6°
Maximum altitude 16:13:03 14° 305° (NW) 1,788 7.4 -6.8°
Drops below altitude 10° 16:15:19 10° 274° (W) 2,046 6.9 -7.0°
Sets 16:18:30 0° 250° (WSW) 2,960 7.3 -7.4°
